EW2826 Weather Reports


Display with metric or nautical units.
time (UTC)temp
F
wind
direction
speed
MPH
gust
MPH
rain 1hr
in
rain 24hr
in
rain mn
in
humidity
%
barometer
mb
20260506134002 63 130 1.0 3.0 0.00 0.00 0.00 52 1030.1
20260506133002 63 111 2.0 5.0 0.00 0.00 0.00 51 1030.1
20260506132001 63 64 3.0 7.0 0.00 0.00 0.00 52 1030.1
20260506130001 63 112 1.0 2.0 0.00 0.00 0.00 53 1030.0
20260506125002 63 103 2.0 7.0 0.00 0.00 0.00 53 1030.0
20260506124002 61 153 2.0 5.0 0.00 0.00 0.00 56 1029.9
20260506121002 60 176 1.0 1.0 0.00 0.00 0.00 62 1029.9
20260506115002 59 170 0.0 0.0 0.00 0.00 0.00 65 1029.6
20260506114002 59 224 1.0 2.0 0.00 0.00 0.00 65 1029.5
20260506113002 60 234 1.0 1.0 0.00 0.00 0.00 63 1029.5
20260506112023 60 226 1.0 1.0 0.00 0.00 0.00 62 1029.4
20260506111001 61 150 0.0 0.0 0.00 0.00 0.00 62 1029.3
20260506110002 61 234 0.0 0.0 0.00 0.00 0.00 60 1029.2
20260506105002 62 156 0.0 0.0 0.00 0.00 0.00 59 1029.2
20260506104001 62 199 1.0 3.0 0.00 0.00 0.00 59 1029.2
20260506103002 63 194 1.0 3.0 0.00 0.00 0.00 59 1029.2
20260506102002 64 210 1.0 2.0 0.00 0.00 0.00 57 1029.1
20260506101007 64 199 0.0 0.0 0.00 0.00 0.00 56 1029.0
20260506100003 65 177 1.0 1.0 0.00 0.00 0.00 54 1029.0
20260506095002 66 114 1.0 2.0 0.00 0.00 0.00 53 1028.8
20260506094023 66 121 2.0 3.0 0.00 0.00 0.00 52 1028.7
20260506093002 67 116 2.0 5.0 0.00 0.00 0.00 51 1028.6
20260506092001 67 107 2.0 3.0 0.00 0.00 0.00 51 1028.5
20260506091002 68 112 3.0 6.0 0.00 0.00 0.00 50 1028.4
20260506090023 68 107 2.0 3.0 0.00 0.00 0.00 50 1028.4
20260506085001 68 124 2.0 3.0 0.00 0.00 0.00 49 1028.3
20260506084001 69 98 3.0 7.0 0.00 0.00 0.00 48 1028.3
20260506083002 69 84 3.0 5.0 0.00 0.00 0.00 48 1028.3
20260506082023 69 92 3.0 6.0 0.00 0.00 0.00 50 1028.3
20260506081002 69 121 1.0 2.0 0.00 0.00 0.00 49 1028.3
20260506073002 69 96 5.0 8.0 0.00 0.00 0.00 48 1028.3
20260506072002 70 96 5.0 8.0 0.00 0.00 0.00 49 1028.3
20260506071002 70 90 4.0 12.0 0.00 0.00 0.00 49 1028.2
20260506062002 71 114 2.0 6.0 0.00 0.00 0.00 48 1028.2
20260506061022 71 74 3.0 7.0 0.00 0.00 0.00 47 1028.2
20260506051002 71 99 5.0 14.0 0.00 0.00 0.00 48 1028.4
20260506045002 71 105 5.0 10.0 0.00 0.00 0.00 49 1028.6
20260506044002 71 28 4.0 7.0 0.00 0.00 0.00 49 1028.8
20260506043002 70 34 4.0 7.0 0.00 0.00 0.00 49 1028.9
20260506041002 70 32 4.0 7.0 0.00 0.00 0.00 50 1029.3
20260506040002 69 32 4.0 8.0 0.00 0.00 0.00 50 1029.5
20260506035023 69 28 3.0 6.0 0.00 0.00 0.00 52 1029.5
20260506034003 69 74 4.0 9.0 0.00 0.00 0.00 52 1029.6
20260506033002 68 76 5.0 8.0 0.00 0.00 0.00 52 1029.7
20260506032002 68 94 4.0 9.0 0.00 0.00 0.00 52 1029.8
20260506031002 68 76 3.0 5.0 0.00 0.00 0.00 54 1029.9
20260506030002 67 98 4.0 7.0 0.00 0.00 0.00 54 1030.0
20260506025002 67 60 2.0 7.0 0.00 0.00 0.00 55 1030.0
20260506024002 66 2 5.0 12.0 0.00 0.00 0.00 55 1030.1
20260506023002 66 96 4.0 8.0 0.00 0.00 0.00 55 1030.2
20260506022002 66 18 3.0 5.0 0.00 0.00 0.00 56 1030.3
20260506021023 65 44 3.0 7.0 0.00 0.00 0.00 57 1030.4
20260506020023 64 92 1.0 3.0 0.00 0.00 0.00 60 1030.4
20260506014003 63 11 3.0 8.0 0.00 0.00 0.00 61 1030.4
20260506013002 63 21 3.0 7.0 0.00 0.00 0.00 61 1030.4
20260506012003 62 34 3.0 8.0 0.00 0.00 0.00 61 1030.4
20260506011002 62 12 5.0 10.0 0.00 0.00 0.00 62 1030.4
20260506010024 61 69 3.0 6.0 0.00 0.00 0.00 64 1030.4
20260506005002 60 62 5.0 10.0 0.00 0.00 0.00 65 1030.2
20260506004002 60 83 4.0 8.0 0.00 0.00 0.00 66 1030.1
20260506003002 59 120 3.0 8.0 0.00 0.00 0.00 66 1029.9
20260506002002 59 76 4.0 10.0 0.00 0.00 0.00 67 1029.9
20260506001023 58 83 3.0 8.0 0.00 0.00 0.00 68 1029.7
20260506000002 58 82 8.0 14.0 0.00 0.00 0.00 68 1029.5
20260505235023 57 103 6.0 12.0 0.00 0.00 0.00 69 1029.4
20260505234002 57 53 5.0 9.0 0.00 0.00 0.00 70 1029.3
20260505233002 56 101 3.0 7.0 0.00 0.00 0.00 72 1029.2
20260505232002 56 189 3.0 6.0 0.00 0.00 0.00 72 1029.1
20260505231002 55 47 2.0 6.0 0.00 0.00 0.00 72 1029.1
20260505230002 55 252 3.0 7.0 0.00 0.00 0.00 73 1028.8
20260505225023 55 176 2.0 3.0 0.00 0.00 0.00 72 1028.9
20260505224002 55 113 2.0 6.0 0.00 0.00 0.00 72 1028.7
20260505223023 55 58 2.0 3.0 0.00 0.00 0.00 72 1028.5
20260505222002 55 91 2.0 6.0 0.00 0.00 0.00 72 1028.4
20260505221023 55 0 2.0 5.0 0.00 0.00 0.00 73 1028.3
20260505220002 55 179 2.0 6.0 0.00 0.00 0.00 72 1028.2
20260505215002 55 221 3.0 6.0 0.00 0.00 0.00 72 1028.1
20260505214002 55 37 3.0 7.0 0.00 0.00 0.00 73 1028.0
20260505213002 54 36 2.0 3.0 0.00 0.00 0.00 75 1027.9
20260505212002 54 22 1.0 2.0 0.00 0.00 0.00 76 1027.9
20260505211023 54 229 1.0 2.0 0.00 0.00 0.00 76 1027.9
20260505210002 54 207 1.0 6.0 0.00 0.00 0.00 75 1027.8
20260505205002 54 2 2.0 5.0 0.00 0.00 0.00 73 1027.7
20260505204002 55 226 2.0 5.0 0.00 0.00 0.00 72 1027.7
20260505202023 56 234 3.0 6.0 0.00 0.00 0.00 69 1027.5
20260505201002 56 214 2.0 6.0 0.00 0.00 0.00 70 1027.5
20260505200002 56 99 5.0 8.0 0.00 0.00 0.00 69 1027.4
20260505195023 57 130 5.0 9.0 0.00 0.00 0.00 69 1027.4
20260505194023 57 130 3.0 10.0 0.00 0.00 0.00 68 1027.4
20260505193002 57 175 3.0 6.0 0.00 0.00 0.00 68 1027.4
20260505192002 57 210 2.0 9.0 0.00 0.00 0.00 67 1027.4
20260505191023 57 162 2.0 5.0 0.00 0.00 0.00 66 1027.3
20260505185002 58 129 3.0 7.0 0.00 0.00 0.00 65 1027.3
20260505184023 57 89 5.0 9.0 0.00 0.00 0.00 66 1027.3
20260505183002 57 33 3.0 9.0 0.00 0.00 0.00 65 1027.5
20260505182002 58 231 3.0 7.0 0.00 0.00 0.00 63 1027.4
20260505181023 59 126 3.0 7.0 0.00 0.00 0.00 62 1027.3
20260505180002 59 167 2.0 3.0 0.00 0.00 0.00 61 1027.2
20260505175002 59 106 2.0 5.0 0.00 0.00 0.00 60 1027.3
20260505174023 59 93 5.0 8.0 0.00 0.00 0.00 60 1027.3
20260505173002 59 90 5.0 8.0 0.00 0.00 0.00 60 1027.2
20260505172022 60 91 5.0 9.0 0.00 0.00 0.00 59 1027.3
20260505171003 60 85 4.0 8.0 0.00 0.00 0.00 58 1027.2
20260505170001 61 115 2.0 5.0 0.00 0.00 0.00 57 1027.1
20260505165002 61 96 6.0 10.0 0.00 0.00 0.00 57 1027.1
20260505164002 61 114 4.0 13.0 0.00 0.00 0.00 57 1027.1
20260505163002 61 107 2.0 5.0 0.00 0.00 0.00 57 1027.0
20260505162002 61 94 4.0 8.0 0.00 0.00 0.00 57 1027.0
20260505161002 61 109 5.0 9.0 0.00 0.00 0.00 57 1026.9
20260505151002 60 117 3.0 8.0 0.00 0.00 0.00 61 1027.1